| time (UTC) | temp F | wind direction | speed knots | gust knots | rain 1hr in | rain 24hr in | rain mn in | humidity % | barometer mb |
| 20260504214600 | 60 | 0 | 0.0 | 1.7 | 0.00 | 0.00 | 0.00 | 53 | 1013.7 |
| 20260504213057 | 60 | 191 | 0.0 | 0.9 | 0.00 | 0.00 | 0.00 | 54 | 1013.7 |
| 20260504211558 | 62 | 157 | 0.9 | 1.7 | 0.00 | 0.00 | 0.00 | 52 | 1013.8 |
| 20260504210059 | 64 | 184 | 0.9 | 5.2 | 0.00 | 0.00 | 0.00 | 47 | 1013.8 |
| 20260504204608 | 64 | 206 | 0.9 | 3.5 | 0.00 | 0.00 | 0.00 | 48 | 1013.9 |
| 20260504203059 | 65 | 191 | 0.9 | 3.5 | 0.00 | 0.00 | 0.00 | 48 | 1013.9 |
| 20260504201557 | 64 | 199 | 0.0 | 3.5 | 0.00 | 0.00 | 0.00 | 49 | 1013.7 |
| 20260504194604 | 66 | 184 | 0.9 | 4.3 | 0.00 | 0.00 | 0.00 | 47 | 1013.7 |
| 20260504193100 | 66 | 200 | 0.9 | 2.6 | 0.00 | 0.00 | 0.00 | 47 | 1013.7 |
| 20260504191612 | 67 | 149 | 0.9 | 3.5 | 0.00 | 0.00 | 0.00 | 46 | 1013.6 |
| 20260504184559 | 69 | 207 | 1.7 | 6.1 | 0.00 | 0.00 | 0.00 | 44 | 1013.2 |
| 20260504183058 | 69 | 181 | 2.6 | 5.2 | 0.00 | 0.00 | 0.00 | 45 | 1013.1 |
| 20260504181600 | 70 | 115 | 0.9 | 5.2 | 0.00 | 0.00 | 0.00 | 44 | 1012.9 |
| 20260504180057 | 71 | 225 | 1.7 | 5.2 | 0.00 | 0.00 | 0.00 | 42 | 1012.8 |
| 20260504174555 | 72 | 186 | 2.6 | 6.1 | 0.00 | 0.00 | 0.00 | 40 | 1012.7 |
| 20260504173057 | 74 | 141 | 2.6 | 7.0 | 0.00 | 0.00 | 0.00 | 38 | 1012.6 |
| 20260504171558 | 74 | 151 | 1.7 | 7.0 | 0.00 | 0.00 | 0.00 | 39 | 1012.7 |
| 20260504160114 | 78 | 186 | 2.6 | 11.3 | 0.00 | 0.00 | 0.00 | 37 | 1012.6 |
| 20260504120106 | 78 | 80 | 1.7 | 8.7 | 0.00 | 0.00 | 0.00 | 42 | 1014.7 |
| 20260504090112 | 69 | 27 | 1.7 | 6.1 | 0.00 | 0.00 | 0.00 | 58 | 1017.2 |
| 20260504081555 | 66 | 61 | 0.9 | 5.2 | 0.00 | 0.00 | 0.00 | 59 | 1017.3 |
| 20260504080112 | 65 | 33 | 0.9 | 2.6 | 0.00 | 0.00 | 0.00 | 60 | 1017.2 |
| 20260504044620 | 49 | 0 | 0.0 | 0.0 | 0.00 | 0.00 | 0.00 | 93 | 1017.3 |
| 20260504043057 | 45 | 0 | 0.0 | 0.0 | 0.00 | 0.00 | 0.00 | 94 | 1017.3 |
| 20260504041559 | 44 | 0 | 0.0 | 0.0 | 0.00 | 0.00 | 0.00 | 96 | 1017.3 |
| 20260504040112 | 43 | 0 | 0.0 | 0.0 | 0.00 | 0.00 | 0.00 | 95 | 1017.3 |
| 20260504034607 | 43 | 0 | 0.0 | 0.0 | 0.00 | 0.00 | 0.00 | 95 | 1017.2 |
| 20260504033057 | 43 | 0 | 0.0 | 0.0 | 0.00 | 0.00 | 0.00 | 95 | 1017.2 |
| 20260504031559 | 43 | 0 | 0.0 | 0.0 | 0.00 | 0.00 | 0.00 | 94 | 1017.2 |
| 20260504030057 | 43 | 0 | 0.0 | 0.0 | 0.00 | 0.00 | 0.00 | 94 | 1017.2 |
| 20260504024604 | 44 | 0 | 0.0 | 0.0 | 0.00 | 0.00 | 0.00 | 94 | 1017.3 |
| 20260504023057 | 44 | 0 | 0.0 | 0.0 | 0.00 | 0.00 | 0.00 | 93 | 1017.2 |
| 20260504021559 | 44 | 0 | 0.0 | 0.0 | 0.00 | 0.00 | 0.00 | 93 | 1017.2 |
| 20260504020057 | 45 | 0 | 0.0 | 0.0 | 0.00 | 0.00 | 0.00 | 94 | 1017.3 |
| 20260504014559 | 45 | 0 | 0.0 | 0.0 | 0.00 | 0.00 | 0.00 | 93 | 1017.2 |
| 20260504013113 | 45 | 0 | 0.0 | 0.0 | 0.00 | 0.00 | 0.00 | 92 | 1017.2 |
| 20260504011556 | 45 | 0 | 0.0 | 0.0 | 0.00 | 0.00 | 0.00 | 91 | 1017.1 |
| 20260504010105 | 46 | 0 | 0.0 | 0.0 | 0.00 | 0.00 | 0.00 | 91 | 1017.2 |
| 20260504004607 | 46 | 0 | 0.0 | 0.0 | 0.00 | 0.00 | 0.00 | 90 | 1017.2 |
| 20260504003057 | 47 | 0 | 0.0 | 0.0 | 0.00 | 0.00 | 0.00 | 89 | 1017.2 |
| 20260504001558 | 47 | 0 | 0.0 | 0.0 | 0.00 | 0.00 | 0.00 | 90 | 1017.2 |
| 20260504000114 | 48 | 0 | 0.0 | 0.0 | 0.00 | 0.00 | 0.00 | 89 | 1017.1 |
| 20260503234555 | 48 | 0 | 0.0 | 0.0 | 0.00 | 0.00 | 0.00 | 88 | 1017.2 |
| 20260503233057 | 48 | 0 | 0.0 | 0.0 | 0.00 | 0.00 | 0.00 | 88 | 1017.2 |
| 20260503231556 | 48 | 0 | 0.0 | 0.0 | 0.00 | 0.00 | 0.00 | 86 | 1017.1 |
| 20260503230100 | 49 | 0 | 0.0 | 0.0 | 0.00 | 0.00 | 0.00 | 86 | 1017.1 |
| 20260503224555 | 49 | 0 | 0.0 | 0.0 | 0.00 | 0.00 | 0.00 | 83 | 1017.1 |
| 20260503223057 | 50 | 0 | 0.0 | 0.0 | 0.00 | 0.00 | 0.00 | 83 | 1017.0 |
| 20260503221558 | 51 | 0 | 0.0 | 0.0 | 0.00 | 0.00 | 0.00 | 82 | 1016.9 |
| 20260503220122 | 51 | 0 | 0.0 | 0.0 | 0.00 | 0.00 | 0.00 | 81 | 1017.0 |